Lid_Strength_Index
3 2 2 2 2 1 1 1 1 3 4 4 4 5 5 4 5 6 6 5 6 7 7 6 6 6 6 7 8 6 7 6 7 9 9 8 10 8 10 9 10 11 12 12 11 14 16 6 6 12 8 6 7 8
3 3 2 2 2 2 2 1 1 3 3 4 4 4 4 4 4 5 6 4 5 8 7 5 5 4 5 5 6 6 6 7 5 6 7 7 10 8 10 12 8 11 9 13 14 12 5 4 6 5 5 7 10 11
3 3 3 3 3 2 2 1 2 2 3 4 4 4 4 4 5 6 5 5 6 8 7 7 6 4 4 4 2 7 5 5 5 3 5 6 10 7 10 10 9 8 6 9 10 7 7 5 4 5 6 9 8 10
2 3 3 4 3 2 2 2 1 2 3 4 4 4 4 4 5 6 6 5 5 7 9 7 5 5 4 3 3 3 4 3 2 4 6 6 8 7 8 8 8 7 7 8 9 7 6 5 5 6 8 8 10 10
1 2 2 3 3 3 2 2 2 3 3 4 4 4 4 4 4 5 4 3 4 6 8 7 5 5 4 4 4 4 4 4 5 6 7 8 6 7 7 7 8 5 7 10 11 6 7 7 7 7 10 11 11 11
1 1 2 2 3 3 3 2 2 3 3 4 4 4 4 4 5 5 6 3 3 4 7 9 6 7 6 6 5 5 5 5 5 6 6 5 5 6 8 9 6 5 4 4 6 4 5 5 6 9 10 11 11 10
1 1 1 2 2 3 3 2 3 3 4 4 4 4 4 4 5 7 8 4 4 3 7 9 8 7 6 5 5 6 4 5 5 5 6 6 6 5 7 11 6 4 4 4 4 5 7 7 10 10 11 11 10 10
1 1 1 1 1 2 2 2 3 4 4 4 4 4 4 5 6 7 5 6 4 5 7 10 9 9 6 6 7 4 6 5 5 5 4 6 6 6 9 6 5 4 4 4 5 5 6 8 9 10 10 11 11 11
2 1 1 1 1 1 2 2 3 3 4 4 4 5 6 7 8 6 5 5 4 6 9 9 10 10 6 5 5 5 4 7 4 6 6 5 8 10 7 6 5 4 5 5 5 6 9 10 11 11 11 11 11 11
2 1 1 1 0 1 1 2 3 3 3 4 6 9 10 7 4 4 6 7 8 8 8 10 6 9 7 7 7 6 6 7 8 7 4 7 8 5 4 4 3 4 4 5 7 10 11 12 12 12 12 11 11 10
2 1 1 0 0 -0 1 2 3 3 4 7 9 8 5 4 5 6 8 9 9 11 9 8 8 9 6 9 8 6 7 6 10 9 8 9 9 6 5 4 3 3 4 6 8 9 10 11 12 12 12 11 11 10
1 1 1 0 0 -0 1 2 3 5 7 7 6 4 5 6 8 10 10 9 10 10 8 9 8 7 7 5 7 7 8 7 11 6 8 11 7 5 5 4 4 4 5 8 9 10 10 11 11 11 12 11 10 10
1 1 1 1 0 0 1 3 4 5 5 5 6 8 8 9 12 13 13 12 10 8 7 7 8 7 6 6 6 7 9 9 5 9 10 7 6 4 3 4 4 5 7 8 9 10 10 11 11 11 10 10 10 9
1 1 1 0 0 1 1 3 4 4 5 8 9 12 11 12 11 10 9 8 7 7 7 6 7 7 6 8 6 9 7 7 11 13 11 6 5 4 3 3 5 6 7 9 10 10 11 11 10 10 9 9 9 9
1 0 0 1 1 1 2 3 4 4 6 9 9 13 11 8 7 7 6 7 6 5 6 7 6 7 8 8 6 7 10 11 10 10 7 5 4 4 4 4 6 6 8 9 10 10 10 10 10 10 9 8 8 8
-0 1 2 1 1 1 2 2 4 6 6 8 9 11 9 10 10 9 8 8 6 6 5 5 8 9 9 7 9 10 10 11 8 6 5 4 4 4 4 4 6 7 8 9 9 9 9 9 10 9 8 9 9 9
2 3 1 1 1 1 2 4 6 9 9 11 11 9 9 9 9 8 7 7 6 6 8 7 10 10 6 9 9 7 8 6 5 5 4 3 4 4 3 5 6 7 9 9 8 8 9 9 8 9 10 10 10 10
3 2 1 2 3 4 5 5 8 10 12 10 12 11 9 8 8 7 7 6 7 7 6 8 5 8 9 10 8 6 5 4 4 4 3 3 3 3 3 5 6 7 8 9 7 8 8 8 9 10 9 9 9 9
2 2 2 3 3 5 8 8 7 12 11 10 10 9 9 8 7 6 6 6 5 4 5 5 8 8 7 5 5 4 4 4 5 4 3 2 2 2 3 5 6 7 9 9 7 7 8 8 8 9 8 9 10 9
2 2 3 3 3 6 9 8 6 9 11 9 9 9 9 9 8 8 7 6 6 6 8 8 7 5 4 4 2 3 3 3 4 4 4 3 2 2 4 6 6 7 8 8 7 10 7 8 8 8 8 9 9 9
3 3 3 3 4 5 6 8 9 9 8 10 8 9 9 8 8 8 7 6 7 7 7 5 4 3 2 1 1 1 2 3 4 3 3 3 2 2 4 5 6 8 8 8 8 8 9 9 7 8 8 9 8 7
4 3 4 5 7 7 7 6 7 7 8 9 8 8 8 8 8 7 6 7 7 6 5 4 4 3 3 3 2 2 2 2 2 3 4 4 3 3 5 5 7 8 8 8 8 8 7 8 7 7 8 8 8 5
3 4 5 6 9 9 10 6 9 9 11 9 8 10 9 8 7 5 8 7 7 5 4 4 4 3 3 2 2 2 2 2 3 3 3 2 2 2 3 5 6 8 8 8 7 7 7 10 8 7 7 7 6 5
3 6 8 9 9 11 8 10 8 9 8 9 10 11 10 7 7 8 9 7 6 5 5 5 5 5 5 4 5 4 3 1 3 3 2 2 3 3 3 5 6 6 7 7 7 7 6 6 9 7 7 6 5 5
9 10 9 11 9 11 12 11 11 10 11 10 10 10 8 8 11 11 10 7 6 5 4 4 5 5 6 6 5 4 2 2 3 3 2 2 2 3 4 5 5 6 6 7 7 7 6 7 6 6 6 5 5 5
12 10 11 10 10 11 10 11 11 11 10 11 10 8 7 9 11 11 7 5 5 4 4 4 5 6 6 5 5 4 3 2 2 3 3 2 2 3 5 6 8 8 6 6 7 7 7 7 7 7 6 6 9 5
12 11 8 6 8 9 9 8 7 9 10 10 9 9 10 12 12 7 3 3 3 3 2 2 3 4 4 4 4 3 3 2 2 3 2 2 1 2 4 6 7 7 6 6 6 6 7 7 7 7 7 6 5 5
9 9 11 9 9 8 10 10 10 11 9 7 7 10 11 10 9 6 4 3 3 2 2 1 1 2 2 2 2 3 3 2 2 2 2 1 1 2 3 4 5 10 6 5 6 6 6 6 6 7 7 7 7 6
10 8 9 11 10 10 10 10 9 7 5 6 9 9 7 5 4 4 4 4 3 3 3 2 2 1 2 2 2 2 2 3 4 5 4 4 5 5 4 5 5 6 5 6 13 10 6 6 6 6 6 6 6 6
11 9 11 11 12 12 9 7 7 5 5 5 5 6 5 5 4 4 4 4 3 3 3 2 2 2 3 3 3 3 2 2 2 3 4 5 5 4 5 5 6 6 5 5 5 6 13 7 8 5 6 5 5 5
9 10 11 11 11 9 8 6 5 5 6 5 5 7 7 6 4 1 2 2 2 2 3 3 3 3 3 3 3 3 3 2 2 2 3 2 3 4 4 5 5 5 5 5 5 5 5 5 6 6 5 6 6 6
10 11 11 12 10 7 6 7 8 8 8 8 8 7 6 6 6 3 1 1 2 3 6 4 3 3 2 2 2 1 5 2 2 2 2 2 3 3 4 5 4 4 4 4 4 4 5 5 5 5 5 5 4 4
10 10 10 11 11 10 9 9 10 9 9 9 9 7 7 6 6 3 0 -1 1 2 2 2 2 2 1 1 2 3 5 1 4 9 8 7 7 6 4 4 4 4 4 4 4 4 4 4 4 4 4 5 5 5